User: anonymous   Login
Location: El Corozo
(10.5833°N, 66.9667°W)
Time: 08:57:13
(UTC+00:00)
Language:

ASTRO E2 - Orbit

View from above orbital plane
View from above orbital plane
View from above satellite
View from above satellite

Ground track
Ground track

The orbit data is extracted from the following two-line orbital elements,

1 28773U 05025A   24203.44693667  .00048273  00000-0  85877-3 0  9997
2 28773  31.3862 266.2468 0000625 234.9676 125.0921 15.48897618 52303
Epoch (UTC): 21 July 2024 10:43:35
Eccentricity: 0.0000625
inclination: 31.3862°
perigee height: 419 km
apogee height: 420 km
right ascension of ascending node: 266.2468°
argument of perigee: 234.9676°
revolutions per day: 15.48897618
mean anomaly at epoch: 125.0921°
orbit number at epoch: 5230

The dashed part of the orbit path shows where the satellite is in the earth's shadow,  

DLR